Lid_Strength_Index
18 17 17 17 17 17 18 16 17 15 16 15 13 12 12 12 13 14 13 13 14 14 14 14 14 14 14 14 14 14 14 14 14 14 14 15 15 16 16 16 16 16 16 16
20 17 17 18 17 17 16 17 17 17 17 14 13 13 14 13 14 14 13 13 13 13 12 12 12 13 13 14 13 13 14 14 14 15 15 16 17 16 16 16 16 16 15 16
19 20 19 19 18 17 17 16 15 17 14 16 16 15 14 15 15 14 12 11 11 13 12 12 12 11 13 13 13 15 15 17 17 17 17 17 17 16 16 17 16 17 17 16
23 20 22 18 20 18 15 15 16 18 19 16 16 16 15 14 14 14 13 12 11 12 13 12 12 12 13 13 14 15 16 17 17 17 18 17 17 17 17 17 17 18 18 18
22 22 19 19 20 20 19 19 17 16 15 16 16 17 17 15 14 14 13 12 12 12 13 13 13 13 13 14 14 15 16 16 16 17 18 18 20 19 18 19 19 19 17 19
23 22 23 20 20 18 17 21 18 15 16 18 17 21 18 15 14 13 13 13 12 12 13 13 13 13 14 15 16 16 15 14 16 17 20 21 19 20 20 21 19 18 19 19
22 21 21 19 18 17 22 19 20 18 17 17 17 16 14 13 14 13 13 12 12 13 12 12 13 14 14 15 15 15 15 16 17 18 20 21 21 21 23 23 20 22 21 20
21 22 22 17 17 18 16 16 16 16 15 15 14 14 14 13 13 13 13 12 11 12 13 12 14 14 14 14 15 17 17 18 19 21 21 19 26 24 25 25 25 24 23 22
19 19 17 15 15 14 13 14 14 14 14 13 14 14 13 13 13 13 13 12 12 12 13 13 15 13 14 15 17 18 20 21 22 21 20 20 25 23 23 25 25 23 21 21
19 18 16 14 13 12 12 12 12 12 13 13 14 13 12 12 13 13 12 12 14 15 15 14 16 15 16 17 18 21 24 21 21 23 21 21 20 20 24 24 23 22 21 21
19 16 14 13 12 11 11 11 12 12 12 12 13 12 12 12 12 12 12 14 15 13 13 13 16 17 19 19 20 22 23 21 20 20 21 21 20 21 20 20 19 21 18 16
18 13 13 12 11 10 12 12 12 12 13 13 12 12 12 12 12 12 12 15 15 15 15 17 17 19 21 20 21 22 21 20 20 20 20 20 21 21 16 13 12 11 11 12
13 11 11 11 11 11 12 12 12 12 11 12 12 12 13 12 14 14 16 16 15 17 18 19 20 20 22 22 24 24 22 20 20 20 20 21 21 22 23 19 14 13 13 13
11 11 13 12 11 11 10 10 12 13 13 13 13 16 16 16 18 18 18 19 19 19 19 20 19 20 21 22 24 24 23 21 22 21 22 22 23 23 23 23 24 22 17 15
11 10 9 10 11 11 12 14 15 14 15 17 18 17 18 18 18 18 19 19 19 20 20 22 24 23 23 25 24 23 22 22 22 22 22 22 22 22 23 23 23 24 22 19
12 12 12 12 10 12 14 17 15 14 16 18 19 19 19 19 20 23 24 25 24 25 26 26 25 23 25 25 23 23 23 21 22 24 23 23 23 24 23 24 25 25 25 23
15 15 19 17 13 13 14 14 13 15 17 18 19 21 23 24 26 28 31 32 31 30 29 28 25 25 28 27 26 24 25 25 23 26 26 27 27 26 25 26 26 26 25 22
9 10 13 13 13 14 16 17 18 19 21 21 22 23 25 26 26 30 33 35 33 31 29 28 28 29 31 31 29 26 27 27 29 28 27 27 27 26 26 26 26 25 23 24
16 13 17 17 19 19 19 21 23 23 23 23 24 26 27 29 30 34 38 35 34 34 28 33 23 28 30 28 27 26 25 25 26 29 29 28 28 29 28 28 26 25 25 26
23 22 22 23 24 25 25 25 26 27 29 27 29 29 31 35 38 37 39 33 32 29 32 31 33 32 30 28 22 25 27 27 27 28 30 29 28 28 27 25 24 25 29 30
25 25 25 25 27 27 27 27 26 28 30 30 28 29 30 37 39 39 35 32 30 34 34 30 34 29 29 27 26 27 30 31 31 29 31 28 28 26 25 25 25 27 29 32
30 29 28 28 28 31 31 29 29 29 30 32 33 34 32 33 36 35 33 30 30 28 31 30 28 27 26 22 22 24 25 26 27 26 27 27 27 25 24 24 26 28 30 31
29 27 28 28 29 32 32 32 30 29 30 32 29 30 30 28 29 29 29 32 33 30 27 26 24 21 19 19 20 22 23 23 23 23 24 24 24 24 24 25 27 30 31 31
32 31 32 31 31 29 29 31 29 30 30 30 31 33 30 29 31 33 30 28 27 26 25 25 22 16 19 24 22 22 22 22 22 22 23 23 23 24 26 28 30 30 31 32
33 33 31 28 26 26 27 28 27 28 30 32 34 32 32 30 30 31 32 28 25 24 25 23 17 18 25 23 22 21 21 22 22 23 23 24 24 25 28 30 31 31 32 32
29 27 27 26 26 27 27 26 26 28 31 32 33 35 35 35 32 30 30 27 26 24 27 26 26 25 22 21 21 21 21 22 22 22 22 23 25 27 28 29 29 30 31 32
28 27 27 26 26 27 28 28 28 31 35 37 33 33 33 33 32 28 26 26 26 26 27 28 24 22 22 22 22 22 22 22 22 23 24 25 26 28 28 28 29 30 31 31